Location: Fredericksburg
(30.2750°N, 98.8720°W)
Time: 08:08:58
(UTC-05:00)

Amateur Radio Satellites - All Passes

Search period start: 03 August 2015 07:38
Search period end: 04 August 2015 07:38
Location: Fredericksburg, 30.2750°N, 98.8720°W

Satellite Date Start Highest point End Downlink Frequencies (MHz)
Time Altitude Azimuth
CUBESAT XI-V 03 Aug 07:41:55 07:46:16 36° 262° (W) 07:50:33 437.345
Cubesat XI-IV 03 Aug 07:43:25 07:48:42 66° 101° (E) 07:53:59 437.490
PRISM 03 Aug 07:48:38 07:52:42 53° 75° (ENE) 07:56:46 437.425
BEESAT 2 03 Aug 08:24:14 08:26:04 13° 51° (NE) 08:28:05 435.950
JUGNU 03 Aug 08:25:16 08:28:36 15° 196° (SSW) 08:31:50 437.505
PCSat 03 Aug 08:30:44 08:35:18 30° 109° (ESE) 08:40:01 145.827
SRMSAT 03 Aug 08:31:27 08:36:14 26° 189° (S) 08:41:00 437.500
CUTE-I 03 Aug 08:39:04 08:43:50 34° 288° (WNW) 08:48:31 437.470
SO-50 03 Aug 08:47:34 08:51:47 35° 112° (ESE) 08:56:12 436.795
RS-15 03 Aug 08:48:28 08:59:53 51° 250° (WSW) 09:11:23 29.354- 29.394
BEESAT 3 03 Aug 08:59:07 09:02:57 42° 59° (ENE) 09:06:44 437.485
DOVE 4 03 Aug 09:05:36 09:09:04 20° 95° (E) 09:12:50 437.250
STRAND 1 03 Aug 09:08:11 09:11:41 18° 267° (W) 09:14:58 437.568
Cubesat XI-IV 03 Aug 09:26:13 09:28:20 12° 293° (WNW) 09:30:06 437.490
Cosmos 2499 03 Aug 09:26:21 09:33:08 38° 284° (WNW) 09:40:18 435.465 / 435.565
GOMX 1 03 Aug 09:27:23 09:32:02 61° 100° (E) 09:37:02 467.674
BRITE-PL 03 Aug 09:28:29 09:33:01 73° 283° (WNW) 09:37:57 437.365/2234.400
COMPASS 1 03 Aug 09:50:18 09:53:52 27° 96° (E) 09:57:28 437.405
HO-68 03 Aug 09:55:21 10:02:25 60° 102° (ESE) 10:09:30 435.675
BEESAT 2 03 Aug 10:00:33 10:04:21 41° 247° (WSW) 10:08:05 435.950
SEEDS 03 Aug 10:08:46 10:13:00 64° 100° (E) 10:17:11 437.485
M-CUBED/EXP-1 PRIME 03 Aug 10:09:12 10:13:03 54° 71° (ENE) 10:17:17 437.505
AIST 2 03 Aug 10:11:20 10:15:18 42° 59° (ENE) 10:19:12 435.215
PCSat 03 Aug 10:14:02 10:18:41 28° 302° (WNW) 10:23:16 145.827
CUTE 1.7 + AOD 2 03 Aug 10:15:29 10:19:47 80° 282° (WNW) 10:24:02 437.475
FUNcube-1 03 Aug 10:21:43 10:23:54 14° 92° (E) 10:26:21 145.935
SRMSAT 03 Aug 10:21:45 10:24:53 14° 197° (SSW) 10:27:54 437.500
UNISAT 6 03 Aug 10:23:36 10:25:25 13° 69° (ENE) 10:27:29 437.425
CANX-2 03 Aug 10:24:20 10:28:32 53° 284° (WNW) 10:32:40 2200.000
SO-50 03 Aug 10:28:50 10:32:27 21° 308° (NW) 10:36:02 436.795
Oscar 11 03 Aug 10:29:03 10:32:47 28° 96° (E) 10:36:33 145.826/435.025
UWE-3 03 Aug 10:29:06 10:32:50 24° 95° (E) 10:36:41 435.000/436.395/437.385
AAUSAT CUBESAT 2 03 Aug 10:29:06 10:33:18 75° 101° (E) 10:37:27 437.432
CINEMA 3 03 Aug 10:33:59 10:38:48 87° 97° (E) 10:43:47 145.822/145.860
AUBIESAT-1 03 Aug 10:36:05 10:40:03 79° 254° (WSW) 10:44:23 437.475
BEESAT 3 03 Aug 10:39:40 10:40:31 10° 251° (WSW) 10:41:06 437.485
DOVE 4 03 Aug 10:42:34 10:46:50 32° 286° (WNW) 10:51:14 437.250
CUBEBUG 2 03 Aug 10:49:00 10:53:37 56° 99° (E) 10:58:18 437.445
TIGRISAT 03 Aug 11:03:34 11:07:32 37° 74° (ENE) 11:11:37 435.000
YUBILEINY 03 Aug 11:04:52 11:10:43 20° 69° (ENE) 11:17:03 435.215
ANTELSAT 03 Aug 11:06:18 11:10:23 42° 75° (ENE) 11:14:36 437.575/2403.000
GOMX 1 03 Aug 11:08:41 11:09:52 11° 289° (WNW) 11:10:43 467.674
POLYITAN 1 03 Aug 11:25:11 11:28:32 24° 73° (ENE) 11:31:59 437.675
COMPASS 1 03 Aug 11:26:27 11:29:21 18° 288° (WNW) 11:32:03 437.405
VELOX 1 03 Aug 11:28:52 11:29:26 10° 91° (E) 11:30:20 145.980
AIST 1 03 Aug 11:32:33 11:33:10 10° 88° (E) 11:34:06
BUGSAT 1 03 Aug 11:33:05 11:35:34 17° 72° (ENE) 11:38:13 437.445
DELFI C3 03 Aug 11:33:23 11:37:23 63° 283° (WNW) 11:41:20 145.870
Cosmos 2491 03 Aug 11:33:55 11:39:03 18° 84° (E) 11:44:43 435.465 / 435.565
ZACube-1 03 Aug 11:35:19 11:39:53 72° 283° (WNW) 11:44:28 437.345
POPSAT HIP 1 03 Aug 11:40:42 11:44:32 37° 74° (ENE) 11:48:25 437.405
HO-68 03 Aug 11:44:26 11:49:42 21° 295° (WNW) 11:54:39 435.675
QB50P2 03 Aug 11:48:47 11:52:50 50° 76° (ENE) 11:56:55 145.880/145.840
ESTCUBE 1 03 Aug 11:48:58 11:51:00 13° 92° (E) 11:53:19 437.505/2401.250
AIST 2 03 Aug 11:52:04 11:53:30 11° 251° (WSW) 11:54:42 435.215
FUNcube-1 03 Aug 11:56:07 12:00:25 41° 285° (WNW) 12:04:42 145.935
UNISAT 6 03 Aug 11:57:45 12:01:50 41° 261° (W) 12:06:02 437.425
HUMSAT D 03 Aug 12:01:51 12:06:12 90° 321° (NW) 12:10:31 437.325/437.525
UWE-3 03 Aug 12:05:27 12:09:15 25° 287° (WNW) 12:13:00 435.000/436.395/437.385
Oscar 11 03 Aug 12:05:44 12:08:47 18° 289° (WNW) 12:11:41 145.826/435.025
UKube-1 03 Aug 12:06:09 12:10:22 54° 100° (E) 12:14:36 .
DUCHIFAT 1 03 Aug 12:10:19 12:14:29 89° 78° (ENE) 12:18:41 145.980
O/OREOS (USA 219) 03 Aug 12:15:02 12:19:38 78° 71° (ENE) 12:24:13 437.305
QB50P1 03 Aug 12:15:33 12:19:44 74° 259° (WSW) 12:23:55 145.935-145.965
NANOSAT C BR1 03 Aug 12:15:44 12:19:54 75° 259° (WSW) 12:24:06 145.865
AISAT 03 Aug 12:23:42 12:28:03 57° 100° (E) 12:32:25 437.250
CUBEBUG 2 03 Aug 12:28:12 12:29:55 12° 290° (WNW) 12:31:20 437.445
CUBEBUG 1 03 Aug 12:30:17 12:34:13 35° 98° (E) 12:38:12 437.445
DX 1 03 Aug 12:38:11 12:42:24 51° 285° (WNW) 12:46:36 434.975-435.025
TIGRISAT 03 Aug 12:42:17 12:44:29 13° 268° (W) 12:46:28 435.000
50 SAT 03 Aug 12:45:13 12:49:07 56° 284° (WNW) 12:52:58 437.505
ANTELSAT 03 Aug 12:45:47 12:47:28 12° 269° (W) 12:48:51 437.575/2403.000
SPROUT 03 Aug 12:57:13 13:00:14 19° 94° (E) 13:03:23 437.525
YUBILEINY 03 Aug 12:59:37 13:08:22 69° 267° (W) 13:17:05 435.215
TISAT 1 03 Aug 13:00:42 13:01:44 11° 92° (E) 13:03:04 437.305
POLYITAN 1 03 Aug 13:01:19 13:04:25 19° 265° (W) 13:07:22 437.675
VELOX 1 03 Aug 13:02:02 13:06:18 49° 285° (WNW) 13:10:33 145.980
AIST 1 03 Aug 13:06:19 13:10:28 43° 279° (W) 13:14:36
BUGSAT 1 03 Aug 13:07:25 13:10:53 26° 263° (W) 13:14:15 437.445
POPSAT HIP 1 03 Aug 13:18:42 13:20:35 12° 268° (W) 13:22:14 437.405
Oscar 19 03 Aug 13:23:14 13:26:44 20° 70° (ENE) 13:30:26 437.125/150
ESTCUBE 1 03 Aug 13:23:54 13:28:06 39° 286° (WNW) 13:32:14 437.505/2401.250
Cosmos 2491 03 Aug 13:26:27 13:35:13 71° 278° (W) 13:43:56 435.465 / 435.565
CUBEBUG 1 03 Aug 14:07:47 14:10:19 15° 289° (WNW) 14:12:40 437.445
Cosmos 2504 03 Aug 14:32:27 14:40:53 62° 81° (E) 14:49:22 435.465 / 435.565
SPROUT 03 Aug 14:32:41 14:36:18 26° 287° (WNW) 14:39:51 437.525
TISAT 1 03 Aug 14:33:44 14:37:44 42° 285° (WNW) 14:41:43 437.305
Gurwin Techsat 1B 03 Aug 14:41:45 14:46:30 35° 72° (ENE) 14:51:19 435.225
BEESAT 03 Aug 14:46:18 14:50:29 31° 97° (E) 14:54:43 436.000
ITAMSAT 1 03 Aug 14:48:41 14:53:23 36° 73° (ENE) 14:58:09 435.822/435.867
Oscar 19 03 Aug 15:01:08 15:05:51 37° 262° (W) 15:10:34 437.125/150
JAS-2 03 Aug 15:06:02 15:10:37 24° 66° (ENE) 15:15:51 435.910
SWISSCUBE 03 Aug 15:06:51 15:11:34 61° 101° (E) 15:16:15 437.505
ITUPSAT 1 03 Aug 15:29:06 15:33:54 84° 280° (W) 15:38:39 437.325
AO-7 03 Aug 15:54:21 16:01:47 38° 66° (ENE) 16:09:21 29.400- 29.500
DANDE 03 Aug 15:56:00 16:00:14 43° 82° (E) 16:05:53 436.750
CUSAT 1 03 Aug 15:56:44 16:01:37 75° 83° (E) 16:08:07 437.405
STARS 03 Aug 15:59:49 16:02:33 17° 94° (E) 16:05:27 437.465
Gurwin Techsat 1B 03 Aug 16:22:29 16:26:34 21° 266° (W) 16:30:29 435.225
BEESAT 03 Aug 16:24:37 16:28:08 20° 289° (WNW) 16:31:30 436.000
Cosmos 2504 03 Aug 16:26:08 16:32:34 23° 274° (W) 16:38:37 435.465 / 435.565
ITAMSAT 1 03 Aug 16:29:06 16:32:59 20° 266° (W) 16:36:42 435.822/435.867
HORYU 2 03 Aug 16:31:07 16:35:23 50° 75° (ENE) 16:39:44 437.375
KKS-1 03 Aug 16:31:59 16:36:28 77° 101° (ESE) 16:40:56 437.445
SWISSCUBE 03 Aug 16:47:48 16:48:58 11° 292° (WNW) 16:49:49 437.505
JAS-2 03 Aug 16:49:39 16:55:18 44° 263° (W) 17:01:39 435.910
VERMONT LUNAR 03 Aug 17:16:13 17:19:21 89° 313° (NW) 17:22:32 437.305
STARS 03 Aug 17:35:07 17:39:04 32° 287° (WNW) 17:42:58 437.465
DANDE 03 Aug 17:40:44 17:43:27 14° 263° (W) 17:46:12 436.750
GONETS M04 03 Aug 17:41:26 17:49:48 50° 79° (E) 17:58:16
MOZHAYETS 4 03 Aug 17:42:16 17:46:44 49° 99° (E) 17:51:11
AO-7 03 Aug 17:46:47 17:54:31 39° 261° (W) 18:02:08 29.400- 29.500
HORYU 2 03 Aug 18:11:34 18:12:22 10° 269° (W) 18:12:50 437.375
PHONESAT 2.4 03 Aug 18:14:49 18:17:48 27° 143° (SE) 18:20:49 2401.200-2431.200
CUTE-I 03 Aug 18:16:13 18:20:08 22° 70° (ENE) 18:24:15 437.470
VERMONT LUNAR 03 Aug 18:53:58 18:56:22 19° 345° (NNW) 18:58:44 437.305
Cubesat XI-IV 03 Aug 18:59:36 19:04:52 62° 75° (ENE) 19:10:11 437.490
SO-50 03 Aug 19:04:24 19:09:20 82° 63° (ENE) 19:14:06 436.795
PCSat 03 Aug 19:06:41 19:12:05 69° 64° (ENE) 19:17:28 145.827
ISS 03 Aug 19:19:05 19:21:15 17° 128° (SE) 19:23:31 145.825
MOZHAYETS 4 03 Aug 19:21:41 19:23:34 12° 291° (WNW) 19:25:11
Cosmos 2499 03 Aug 19:22:43 19:31:21 56° 80° (E) 19:39:58 435.465 / 435.565
PRISM 03 Aug 19:38:57 19:40:04 11° 92° (E) 19:41:28 437.425
GONETS M04 03 Aug 19:39:11 19:46:17 27° 273° (W) 19:53:06
CUBESAT XI-V 03 Aug 19:43:57 19:48:34 87° 101° (ESE) 19:53:09 437.345
STRAND 1 03 Aug 19:44:33 19:48:21 22° 95° (E) 19:52:18 437.568
PHONESAT 2.4 03 Aug 19:52:19 19:55:40 42° 336° (NNW) 19:59:01 2401.200-2431.200
CUTE-I 03 Aug 19:55:06 20:00:01 36° 262° (W) 20:04:54 437.470
HO-68 03 Aug 20:18:57 20:24:19 25° 66° (ENE) 20:29:57 435.675
GOMX 1 03 Aug 20:31:03 20:34:45 30° 74° (ENE) 20:38:26 467.674
VERMONT LUNAR 03 Aug 20:32:16 20:33:50 13° 2° (N) 20:35:24 437.305
BRITE-PL 03 Aug 20:34:14 20:38:38 67° 77° (ENE) 20:42:50 437.365/2234.400
Cubesat XI-IV 03 Aug 20:43:17 20:45:27 12° 269° (W) 20:47:13 437.490
RS-15 03 Aug 20:52:52 21:02:46 44° 109° (ESE) 21:13:05 29.354- 29.394
PCSat 03 Aug 20:53:35 20:55:01 11° 255° (WSW) 20:56:02 145.827
ISS 03 Aug 20:54:43 20:57:33 27° 320° (NW) 21:00:23 145.825
SEEDS 03 Aug 20:55:47 20:58:58 21° 72° (ENE) 21:02:15 437.485
CUTE 1.7 + AOD 2 03 Aug 21:02:42 21:06:30 33° 74° (ENE) 21:10:23 437.475
CANX-2 03 Aug 21:11:13 21:15:19 49° 76° (ENE) 21:19:29 2200.000
PRISM 03 Aug 21:11:54 21:15:44 38° 285° (WNW) 21:19:30 437.425
AAUSAT CUBESAT 2 03 Aug 21:14:40 21:17:56 23° 73° (ENE) 21:21:19 437.432
Cosmos 2499 03 Aug 21:17:00 21:24:04 26° 274° (W) 21:30:44 435.465 / 435.565
Oscar 11 03 Aug 21:20:36 21:21:48 11° 70° (ENE) 21:23:17 145.826/435.025
STRAND 1 03 Aug 21:23:06 21:27:36 32° 288° (WNW) 21:32:02 437.568
CINEMA 3 03 Aug 21:30:48 21:34:34 36° 74° (ENE) 21:38:26 145.822/145.860
PHONESAT 2.4 03 Aug 21:31:50 21:34:12 17° 352° (N) 21:36:33 2401.200-2431.200
DOVE 4 03 Aug 21:42:41 21:46:46 55° 260° (W) 21:50:50 437.250
CUBEBUG 2 03 Aug 21:42:42 21:45:48 21° 72° (ENE) 21:49:06 437.445
HO-68 03 Aug 22:04:48 22:11:43 51° 259° (W) 22:18:37 435.675
VERMONT LUNAR 03 Aug 22:08:38 22:11:15 23° 18° (NNE) 22:13:52 437.305
COMPASS 1 03 Aug 22:10:23 22:14:30 53° 260° (W) 22:18:38 437.405
GOMX 1 03 Aug 22:10:35 22:13:01 14° 266° (W) 22:15:12 467.674
DELFI C3 03 Aug 22:14:47 22:18:24 33° 74° (ENE) 22:22:05 145.870
AUBIESAT-1 03 Aug 22:23:37 22:26:11 15° 96° (E) 22:28:53 437.475
ZACube-1 03 Aug 22:25:45 22:29:40 41° 75° (ENE) 22:33:42 437.345
SEEDS 03 Aug 22:31:15 22:34:39 23° 265° (W) 22:37:58 437.485
CUTE 1.7 + AOD 2 03 Aug 22:40:05 22:42:33 14° 268° (W) 22:44:48 437.475
FUNcube-1 03 Aug 22:45:48 22:49:57 74° 77° (ENE) 22:54:12 145.935
BEESAT 3 03 Aug 22:46:09 22:49:44 31° 113° (ESE) 22:53:23 437.485
HUMSAT D 03 Aug 22:48:15 22:51:46 28° 74° (ENE) 22:55:24 437.325/437.525
AAUSAT CUBESAT 2 03 Aug 22:50:17 22:53:28 20° 265° (W) 22:56:34 437.432
Oscar 11 03 Aug 22:53:26 22:57:37 47° 261° (W) 23:01:48 145.826/435.025
UKube-1 03 Aug 22:56:00 22:59:18 22° 72° (ENE) 23:02:41 .
UWE-3 03 Aug 22:56:13 23:00:19 55° 260° (W) 23:04:31 435.000/436.395/437.385
TIGRISAT 03 Aug 23:02:18 23:04:35 14° 92° (E) 23:07:08 435.000
RS-15 03 Aug 23:04:53 23:15:10 44° 308° (NW) 23:25:37 29.354- 29.394
ANTELSAT 03 Aug 23:05:02 23:07:46 16° 93° (E) 23:10:44 437.575/2403.000
CINEMA 3 03 Aug 23:10:17 23:12:00 12° 269° (W) 23:13:29 145.822/145.860
PHONESAT 2.4 03 Aug 23:10:34 23:13:00 17° 9° (N) 23:15:26 2401.200-2431.200
AISAT 03 Aug 23:16:22 23:19:55 25° 72° (ENE) 23:23:33 437.250
CUBEBUG 2 03 Aug 23:19:08 23:22:26 22° 266° (W) 23:25:40 437.445
AIST 1 03 Aug 23:19:46 23:23:11 24° 78° (ENE) 23:26:42
CUBEBUG 1 03 Aug 23:22:14 23:24:36 15° 71° (ENE) 23:27:11 437.445
50 SAT 03 Aug 23:23:20 23:26:45 32° 74° (ENE) 23:30:17 437.505
DX 1 03 Aug 23:27:45 23:32:01 62° 76° (ENE) 23:36:19 434.975-435.025
M-CUBED/EXP-1 PRIME 03 Aug 23:30:01 23:34:46 71° 288° (WNW) 23:39:16 437.505
QB50P2 03 Aug 23:41:24 23:43:22 13° 92° (E) 23:45:34 145.880/145.840
Cosmos 2491 03 Aug 23:44:16 23:52:25 45° 78° (ENE) 00:00:41 435.465 / 435.565
VERMONT LUNAR 03 Aug 23:45:01 23:48:07 57° 213° (SSW) 23:51:12 437.305
BEESAT 2 03 Aug 23:48:03 23:52:03 55° 299° (WNW) 23:56:05 435.950
DELFI C3 03 Aug 23:51:33 23:53:36 13° 268° (W) 23:55:26 145.870
VELOX 1 03 Aug 23:53:31 23:57:54 70° 76° (ENE) 00:02:17 145.980
UNISAT 6 03 Aug 23:54:52 23:59:33 63° 101° (E) 00:04:12 437.425
AUBIESAT-1 03 Aug 23:56:41 00:01:05 40° 291° (WNW) 00:05:15 437.475
YUBILEINY 03 Aug 23:58:21 00:05:11 28° 87° (E) 00:12:21 435.215
DUCHIFAT 1 04 Aug 00:01:18 00:04:34 22° 96° (E) 00:07:56 145.980
AIST 2 04 Aug 00:03:36 00:07:29 37° 113° (ESE) 00:11:26 435.215
ZACube-1 04 Aug 00:04:58 00:06:19 11° 269° (W) 00:07:22 437.345
NANOSAT C BR1 04 Aug 00:06:40 00:10:14 26° 96° (E) 00:13:53 145.865
QB50P1 04 Aug 00:06:41 00:10:18 27° 97° (E) 00:13:59 145.935-145.965
ESTCUBE 1 04 Aug 00:17:11 00:21:43 90° 214° (SW) 00:26:16 437.505/2401.250
HUMSAT D 04 Aug 00:24:54 00:27:34 16° 267° (W) 00:30:05 437.325/437.525
BEESAT 3 04 Aug 00:25:03 00:27:46 17° 307° (NW) 00:30:21 437.485
UKube-1 04 Aug 00:31:52 00:35:20 23° 264° (W) 00:38:42 .
TIGRISAT 04 Aug 00:37:04 00:41:33 43° 285° (WNW) 00:45:58 435.000
ANTELSAT 04 Aug 00:40:19 00:44:42 38° 286° (WNW) 00:49:01 437.575/2403.000
O/OREOS (USA 219) 04 Aug 00:43:53 00:46:47 18° 102° (ESE) 00:49:52 437.305
PHONESAT 2.4 04 Aug 00:48:04 00:51:29 48° 26° (NNE) 00:54:52 2401.200-2431.200
POLYITAN 1 04 Aug 00:50:54 00:55:11 77° 283° (WNW) 00:59:28 437.675
AISAT 04 Aug 00:53:04 00:56:27 21° 265° (W) 00:59:43 437.250
BUGSAT 1 04 Aug 00:54:19 00:58:23 64° 101° (E) 01:02:30 437.445
CUBEBUG 1 04 Aug 00:56:42 01:00:42 35° 262° (W) 01:04:40 437.445
JUGNU 04 Aug 00:57:11 00:59:26 12° 162° (SSE) 01:01:50 437.505
AIST 1 04 Aug 00:57:44 01:00:41 18° 270° (W) 01:03:30
50 SAT 04 Aug 00:59:45 01:01:28 12° 268° (W) 01:02:58 437.505
POPSAT HIP 1 04 Aug 01:06:49 01:10:57 49° 284° (WNW) 01:15:04 437.405
QB50P2 04 Aug 01:15:28 01:19:25 36° 286° (WNW) 01:23:20 145.880/145.840
TISAT 1 04 Aug 01:19:43 01:23:50 63° 76° (ENE) 01:27:58 437.305
SPROUT 04 Aug 01:20:14 01:24:28 72° 259° (W) 01:28:44 437.525
RS-15 04 Aug 01:29:26 01:31:58 11° 337° (NNW) 01:33:53 29.354- 29.394
UNISAT 6 04 Aug 01:35:07 01:35:51 10° 292° (WNW) 01:36:15 437.425
DUCHIFAT 1 04 Aug 01:36:56 01:40:17 22° 288° (WNW) 01:43:31 145.980
Cosmos 2491 04 Aug 01:41:38 01:49:04 31° 272° (W) 01:56:14 435.465 / 435.565
Oscar 19 04 Aug 01:42:47 01:43:19 10° 90° (E) 01:44:17 437.125/150
NANOSAT C BR1 04 Aug 01:42:53 01:45:55 19° 288° (WNW) 01:48:48 145.865
QB50P1 04 Aug 01:42:59 01:46:00 18° 288° (WNW) 01:48:51 145.935-145.965
AIST 2 04 Aug 01:43:30 01:46:13 16° 308° (NW) 01:48:47 435.215
BEESAT 04 Aug 01:47:56 01:51:15 20° 70° (ENE) 01:54:43 436.000
YUBILEINY 04 Aug 01:53:17 02:01:40 49° 281° (WNW) 02:10:01 435.215
SWISSCUBE 04 Aug 02:07:51 02:12:12 36° 73° (ENE) 02:16:36 437.505
O/OREOS (USA 219) 04 Aug 02:22:04 02:26:01 29° 294° (WNW) 02:29:55 437.305
PHONESAT 2.4 04 Aug 02:26:28 02:29:17 23° 218° (SW) 02:32:03 2401.200-2431.200
ITUPSAT 1 04 Aug 02:30:01 02:34:43 58° 75° (ENE) 02:39:27 437.325
JUGNU 04 Aug 02:43:17 02:47:57 24° 170° (S) 02:52:38 437.505
SRMSAT 04 Aug 02:54:40 02:57:17 13° 162° (SSE) 03:00:01 437.500
Cosmos 2504 04 Aug 02:56:21 03:03:02 49° 91° (E) 03:10:14 435.465 / 435.565
Gurwin Techsat 1B 04 Aug 03:04:14 03:08:16 23° 95° (E) 03:12:27 435.225
ITAMSAT 1 04 Aug 03:07:59 03:11:43 21° 94° (E) 03:15:36 435.822/435.867
Oscar 19 04 Aug 03:18:02 03:23:10 66° 285° (WNW) 03:28:19 437.125/150
BEESAT 04 Aug 03:24:34 03:28:52 33° 262° (W) 03:33:09 436.000
KKS-1 04 Aug 03:24:45 03:28:40 33° 73° (ENE) 03:32:39 437.445
ISS 04 Aug 03:26:54 03:29:14 18° 37° (NE) 03:31:38 145.825
SWISSCUBE 04 Aug 03:46:56 03:50:10 17° 266° (W) 03:53:13 437.505
AO-7 04 Aug 04:04:27 04:08:43 16° 92° (E) 04:13:38 29.400- 29.500
JAS-2 04 Aug 04:04:36 04:11:51 41° 96° (E) 04:18:50 435.910
ITUPSAT 1 04 Aug 04:11:58 04:13:01 10° 269° (W) 04:13:41 437.325
STARS 04 Aug 04:25:37 04:29:58 77° 258° (WSW) 04:34:20 437.465
HORYU 2 04 Aug 04:29:19 04:31:57 16° 93° (E) 04:34:47 437.375
JUGNU 04 Aug 04:31:22 04:36:31 30° 179° (S) 04:41:39 437.505
MOZHAYETS 4 04 Aug 04:38:59 04:42:39 24° 72° (ENE) 04:46:27
SRMSAT 04 Aug 04:41:15 04:45:57 24° 170° (S) 04:50:40 437.500
Gurwin Techsat 1B 04 Aug 04:43:33 04:48:18 33° 288° (WNW) 04:52:58 435.225
ITAMSAT 1 04 Aug 04:46:37 04:51:19 35° 288° (WNW) 04:55:55 435.822/435.867
Cosmos 2504 04 Aug 04:50:05 04:55:40 23° 288° (WNW) 05:01:12 435.465 / 435.565
CUSAT 1 04 Aug 05:01:04 05:03:54 40° 279° (W) 05:06:25 437.405
KKS-1 04 Aug 05:02:37 05:05:24 16° 266° (W) 05:08:00 437.445
ISS 04 Aug 05:02:50 05:05:42 28° 231° (SW) 05:08:31 145.825
DANDE 04 Aug 05:04:04 05:07:30 87° 275° (W) 05:10:19 436.750
JAS-2 04 Aug 05:49:41 05:56:42 36° 291° (WNW) 06:03:18 435.910
AO-7 04 Aug 05:54:05 06:02:25 81° 288° (WNW) 06:10:42 29.400- 29.500
RS-15 04 Aug 06:00:28 06:10:34 33° 47° (NE) 06:21:17 29.354- 29.394
HORYU 2 04 Aug 06:04:36 06:08:43 34° 286° (WNW) 06:12:45 437.375
MOZHAYETS 4 04 Aug 06:16:01 06:19:49 24° 265° (W) 06:23:30
JUGNU 04 Aug 06:20:17 06:25:05 25° 189° (S) 06:29:50 437.505
SRMSAT 04 Aug 06:29:34 06:34:40 30° 180° (S) 06:39:45 437.500
GONETS M04 04 Aug 06:34:44 06:43:21 70° 93° (E) 06:51:59
CUTE-I 04 Aug 06:40:09 06:42:24 13° 91° (E) 06:45:01 437.470
CUBESAT XI-V 04 Aug 06:41:31 06:45:55 43° 75° (ENE) 06:50:21 437.345
STRAND 1 04 Aug 06:55:27 06:58:47 18° 69° (ENE) 07:02:20 437.568
Cubesat XI-IV 04 Aug 07:23:01 07:27:58 40° 98° (E) 07:32:56 437.490
